Location: Powder Track
(41.8531°N, 72.3584°W)
Time: 07:53:13
(UTC+00:00)

Altair - Pass Details

Date: 06 August 2021
Orbit: 1501 x 1682 km, 47.2° (Epoch: 19 September)

Event Time Altitude Azimuth Distance (km) Brightness Sun altitude
Exits shadow 07:50:44 - 276° (W) 4,326 9.5 -18.9°
Reaches altitude 10° 07:52:37 10° 279° (W) 3,729 9.2 -18.7°
Maximum altitude 08:01:55 63° 359° (N) 1,666 7.8 -17.4°
Drops below altitude 10° 08:11:00 10° 81° (E) 3,653 10.4 -16.2°
Sets 08:14:05 0° 84° (E) 4,634 11.0 -15.7°
